Weather History for Venice, Italy

Change the Weather History Date:

Wednesday, October 16, 2013

  Actual Average Record
Temperature  
Mean Temperature 58 °F -  
Max Temperature 64 °F 59 °F 73 °F (2001)
Min Temperature 53 °F 44 °F 42 °F (1997)
Degree Days  
Heating Degree Days 6    
Growing Degree Days 8 (Base 50)    
Moisture  
Dew Point 54 °F    
Average Humidity 88    
Maximum Humidity 100    
Minimum Humidity 68    
Precipitation  
Precipitation 0.00 in 0.10 in - ()
Sea Level Pressure  
Sea Level Pressure 29.78 in    
Wind  
Wind Speed 2 mph ()    
Max Wind Speed 7 mph    
Max Gust Speed -    
Visibility 1.3 miles    
Events Fog    
Averages and records for this station are not official NWS values.
T = Trace of Precipitation, MM = Missing Value Source: Averaged Metar Reports

Daily Weather History Graph

Daily Weather History Graph

Search for Another Location

Airport:

Trip Planner

Search our weather history database for the weather conditions in past years. The results will help you decide how hot, cold, wet, or windy it might be!

Date:

Astronomy

Oct. 16, 2013 Rise Set
Actual Time 7:28 AM CEST 6:23 PM CEST
Civil Twilight 6:58 AM CEST 6:53 PM CEST
Nautical Twilight 6:23 AM CEST 7:27 PM CEST
Astronomical Twilight 5:49 AM CEST 8:01 PM CEST
Moon 4:58 PM CEST (10/16) 4:30 AM CEST (10/16)
Length of Visible Light 11h 54m
Length of Day
10h 55m
Waxing Gibbous, 92% of the Moon is Illuminated
Oct 16
Waxing Gibbous
Oct 19
Full
Oct 27
Last Quarter
Nov 3
New
Nov 10
First Quarter

Hourly Weather History & Observations

Time (CEST) Temp. Dew Point Humidity Pressure Visibility Wind Dir Wind Speed Gust Speed Precip Events Conditions
12:20 AM 59.0 °F 55.4 °F 88% 29.86 in 1.9 mi Variable 3.5 mph - N/A   Mostly Cloudy
12:50 AM 59.0 °F 55.4 °F 88% 29.83 in 1.9 mi SW 4.6 mph - N/A   Mostly Cloudy
1:20 AM 57.2 °F 55.4 °F 94% 29.80 in 1.9 mi SW 6.9 mph - N/A   Mostly Cloudy
1:50 AM 57.2 °F 55.4 °F 94% 29.80 in 1.9 mi SW 4.6 mph - N/A   Mostly Cloudy
2:20 AM 55.4 °F 53.6 °F 94% 29.80 in 1.6 mi Variable 3.5 mph - N/A   Mostly Cloudy
2:50 AM 55.4 °F 53.6 °F 94% 29.77 in 1.6 mi Variable 1.2 mph - N/A   Mostly Cloudy
3:20 AM 55.4 °F 53.6 °F 94% 29.74 in 1.6 mi Variable 1.2 mph - N/A   Mostly Cloudy
3:50 AM 55.4 °F 53.6 °F 94% 29.74 in 1.6 mi Variable 1.2 mph - N/A   Mostly Cloudy
4:20 AM 55.4 °F 53.6 °F 94% 29.74 in 1.9 mi Variable 1.2 mph - N/A   Mostly Cloudy
4:50 AM 55.4 °F 53.6 °F 94% 29.71 in 1.6 mi Calm Calm - N/A   Mostly Cloudy
5:20 AM 55.4 °F 53.6 °F 94% 29.74 in 1.4 mi Variable 2.3 mph - N/A   Mostly Cloudy
5:50 AM 55.4 °F 53.6 °F 94% 29.71 in 1.4 mi Variable 1.2 mph - N/A   Mostly Cloudy
6:20 AM 55.4 °F 53.6 °F 94% 29.74 in 1.2 mi Variable 2.3 mph - N/A   Mostly Cloudy
6:50 AM 55.4 °F 53.6 °F 94% 29.71 in 1.2 mi Variable 3.5 mph - N/A   Mostly Cloudy
7:20 AM 55.4 °F 53.6 °F 94% 29.71 in 1.2 mi Calm Calm - N/A   Mostly Cloudy
7:50 AM 55.4 °F 53.6 °F 94% 29.71 in 1.1 mi Variable 1.2 mph - N/A   Scattered Clouds
8:20 AM 53.6 °F 51.8 °F 94% 29.71 in 0.6 mi Variable 1.2 mph - N/A Fog Patches of Fog
8:50 AM 53.6 °F 51.8 °F 94% 29.71 in 0.3 mi Variable 2.3 mph - N/A Fog Fog
9:20 AM 53.6 °F 51.8 °F 94% 29.74 in 0.1 mi Variable 1.2 mph - N/A Fog Fog
9:50 AM 53.6 °F 51.8 °F 94% 29.74 in 0.1 mi Variable 2.3 mph - N/A Fog Fog
10:20 AM 53.6 °F 51.8 °F 94% 29.74 in 0.1 mi Variable 2.3 mph - N/A Fog Fog
10:50 AM 53.6 °F 53.6 °F 100% 29.74 in 0.1 mi Variable 2.3 mph - N/A Fog Fog
11:20 AM 55.4 °F 53.6 °F 94% 29.74 in 0.2 mi Variable 1.2 mph - N/A Fog Fog
11:50 AM 55.4 °F 53.6 °F 94% 29.77 in 0.5 mi Variable 3.5 mph - N/A Fog Fog
12:20 PM 55.4 °F 55.4 °F 100% 29.77 in 0.9 mi Calm Calm - N/A   Scattered Clouds
12:50 PM 59.0 °F 57.2 °F 94% 29.77 in 1.2 mi Variable 2.3 mph - N/A   Partly Cloudy
1:20 PM 59.0 °F 53.6 °F 82% 29.77 in 1.2 mi East 4.6 mph - N/A   Partly Cloudy
1:50 PM 60.8 °F 53.6 °F 77% 29.77 in 1.2 mi Variable 3.5 mph - N/A   Mist
2:20 PM 62.6 °F 53.6 °F 72% 29.77 in 1.2 mi Variable 2.3 mph - N/A   Mist
2:50 PM 62.6 °F 55.4 °F 77% 29.77 in 1.2 mi Variable 3.5 mph - N/A   Mist
3:20 PM 64.4 °F 55.4 °F 73% 29.77 in 2.5 mi SSW 4.6 mph - N/A   Mist
3:50 PM 64.4 °F 53.6 °F 68% 29.77 in 2.5 mi Variable 3.5 mph - N/A   Mist
4:20 PM 64.4 °F 55.4 °F 73% 29.77 in 1.9 mi ESE 4.6 mph - N/A   Mist
4:50 PM 62.6 °F 53.6 °F 72% 29.77 in 1.9 mi ESE 4.6 mph - N/A   Mist
5:20 PM 60.8 °F 55.4 °F 82% 29.77 in 1.9 mi Variable 3.5 mph - N/A   Mist
5:50 PM 60.8 °F 55.4 °F 82% 29.77 in 1.2 mi Variable 1.2 mph - N/A   Mist
6:20 PM 60.8 °F 59.0 °F 94% 29.80 in 1.2 mi Variable 2.3 mph - N/A   Mist
6:50 PM 59.0 °F 57.2 °F 94% 29.80 in 1.1 mi Variable 1.2 mph - N/A   Mist
7:20 PM 60.8 °F 55.4 °F 82% 29.83 in 1.1 mi Calm Calm - N/A   Mist
7:50 PM 60.8 °F 57.2 °F 88% 29.83 in 1.2 mi Calm Calm - N/A   Mist
8:20 PM 57.2 °F 51.8 °F 82% 29.83 in 1.2 mi Variable 1.2 mph - N/A   Mist
8:50 PM 59.0 °F 53.6 °F 82% 29.83 in 1.2 mi Variable 2.3 mph - N/A   Mist
9:20 PM 59.0 °F 53.6 °F 82% 29.86 in 1.1 mi Variable 2.3 mph - N/A   Mist
9:50 PM 59.0 °F 55.4 °F 88% 29.86 in 1.1 mi Variable 2.3 mph - N/A   Mist
10:20 PM 60.8 °F 57.2 °F 88% 29.89 in 1.2 mi Variable 3.5 mph - N/A   Mist
10:50 PM 59.0 °F 53.6 °F 82% 29.89 in 1.6 mi Variable 2.3 mph - N/A   Mist
11:20 PM 59.0 °F 53.6 °F 82% 29.89 in 1.6 mi Variable 1.2 mph - N/A   Mist
11:50 PM 59.0 °F 57.2 °F 94% 29.89 in 1.2 mi Variable 2.3 mph - N/A   Mist